Year,Month,Day,Hour,Minute,Value (Times are PST for temperature in C)
2013,11,12,00,00,6.90
2013,11,12,00,01,6.90
2013,11,12,00,02,6.90
2013,11,12,00,03,7.00
2013,11,12,00,04,7.00
2013,11,12,00,05,7.00
2013,11,12,00,06,7.10
2013,11,12,00,07,7.10
2013,11,12,00,08,7.10
2013,11,12,00,09,7.10
2013,11,12,00,10,7.10
2013,11,12,00,11,7.10
2013,11,12,00,12,7.10
2013,11,12,00,13,7.10
2013,11,12,00,14,7.10
2013,11,12,00,15,7.10
2013,11,12,00,16,7.10
2013,11,12,00,17,7.10
2013,11,12,00,18,7.10
2013,11,12,00,19,7.10
2013,11,12,00,20,7.10
2013,11,12,00,21,7.10
2013,11,12,00,22,7.10
2013,11,12,00,23,7.10
2013,11,12,00,24,7.10
2013,11,12,00,25,7.10
2013,11,12,00,26,7.10
2013,11,12,00,27,7.10
2013,11,12,00,28,7.10
2013,11,12,00,29,7.10
2013,11,12,00,30,7.10
2013,11,12,00,31,7.10
2013,11,12,00,32,7.10
2013,11,12,00,33,7.10
2013,11,12,00,34,7.10
2013,11,12,00,35,7.10
2013,11,12,00,36,7.10
2013,11,12,00,37,7.10
2013,11,12,00,38,7.10
2013,11,12,00,39,7.10
2013,11,12,00,40,7.10
2013,11,12,00,41,7.10
2013,11,12,00,42,7.10
2013,11,12,00,43,7.10
2013,11,12,00,44,7.10
2013,11,12,00,45,7.10
2013,11,12,00,46,7.10
2013,11,12,00,47,7.10
2013,11,12,00,48,7.10
2013,11,12,00,49,7.10
2013,11,12,00,50,7.10
2013,11,12,00,51,7.10
2013,11,12,00,52,7.10
2013,11,12,00,53,7.10
2013,11,12,00,54,7.10
2013,11,12,00,55,7.10
2013,11,12,00,56,7.20
2013,11,12,00,57,7.20
2013,11,12,00,58,7.20
2013,11,12,00,59,7.20
2013,11,12,01,00,7.20
2013,11,12,01,01,7.20
2013,11,12,01,02,7.20
2013,11,12,01,03,7.20
2013,11,12,01,04,7.20
2013,11,12,01,05,7.20
2013,11,12,01,06,7.20
2013,11,12,01,07,7.20
2013,11,12,01,08,7.20
2013,11,12,01,09,7.20
2013,11,12,01,10,7.20
2013,11,12,01,11,7.20
2013,11,12,01,12,7.20
2013,11,12,01,13,7.20
2013,11,12,01,14,7.20
2013,11,12,01,15,7.20
2013,11,12,01,16,7.20
2013,11,12,01,17,7.20
2013,11,12,01,18,7.20
2013,11,12,01,19,7.20
2013,11,12,01,20,7.20
2013,11,12,01,21,7.20
2013,11,12,01,22,7.20
2013,11,12,01,23,7.20
2013,11,12,01,24,7.20
2013,11,12,01,25,7.20
2013,11,12,01,26,7.20
2013,11,12,01,27,7.20
2013,11,12,01,28,7.20
2013,11,12,01,29,7.20
2013,11,12,01,30,7.20
2013,11,12,01,31,7.20
2013,11,12,01,32,7.20
2013,11,12,01,33,7.20
2013,11,12,01,34,7.20
2013,11,12,01,35,7.20
2013,11,12,01,36,7.20
2013,11,12,01,37,7.20
2013,11,12,01,38,7.20
2013,11,12,01,39,7.20
2013,11,12,01,40,7.20
2013,11,12,01,41,7.20
2013,11,12,01,42,7.20
2013,11,12,01,43,7.20
2013,11,12,01,44,7.20
2013,11,12,01,45,7.20
2013,11,12,01,46,7.20
2013,11,12,01,47,7.20
2013,11,12,01,48,7.20
2013,11,12,01,49,7.20
2013,11,12,01,50,7.20
2013,11,12,01,51,7.20
2013,11,12,01,52,7.20
2013,11,12,01,53,7.20
2013,11,12,01,54,7.20
2013,11,12,01,55,7.20
2013,11,12,01,56,7.20
2013,11,12,01,57,7.20
2013,11,12,01,58,7.20
2013,11,12,01,59,7.20
2013,11,12,02,00,7.20
2013,11,12,02,01,7.20
2013,11,12,02,02,7.20
2013,11,12,02,03,7.20
2013,11,12,02,04,7.20
2013,11,12,02,05,7.20
2013,11,12,02,06,7.20
2013,11,12,02,07,7.20
2013,11,12,02,08,7.20
2013,11,12,02,09,7.20
2013,11,12,02,10,7.20
2013,11,12,02,11,7.20
2013,11,12,02,12,7.20
2013,11,12,02,13,7.20
2013,11,12,02,14,7.20
2013,11,12,02,15,7.20
2013,11,12,02,16,7.20
2013,11,12,02,17,7.20
2013,11,12,02,18,7.20
2013,11,12,02,19,7.20
2013,11,12,02,20,7.20
2013,11,12,02,21,7.20
2013,11,12,02,22,7.20
2013,11,12,02,23,7.20
2013,11,12,02,24,7.20
2013,11,12,02,25,7.20
2013,11,12,02,26,7.20
2013,11,12,02,27,7.20
2013,11,12,02,28,7.20
2013,11,12,02,29,7.20
2013,11,12,02,30,7.20
2013,11,12,02,31,7.20
2013,11,12,02,32,7.20
2013,11,12,02,33,7.20
2013,11,12,02,34,7.20
2013,11,12,02,35,7.20
2013,11,12,02,36,7.20
2013,11,12,02,37,7.20
2013,11,12,02,38,7.20
2013,11,12,02,39,7.20
2013,11,12,02,40,7.20
2013,11,12,02,41,7.20
2013,11,12,02,42,7.20
2013,11,12,02,43,7.20
2013,11,12,02,44,7.20
2013,11,12,02,45,7.20
2013,11,12,02,46,7.20
2013,11,12,02,47,7.20
2013,11,12,02,48,7.20
2013,11,12,02,49,7.20
2013,11,12,02,50,7.20
2013,11,12,02,51,7.20
2013,11,12,02,52,7.20
2013,11,12,02,53,7.20
2013,11,12,02,54,7.20
2013,11,12,02,55,7.20
2013,11,12,02,56,7.20
2013,11,12,02,57,7.20
2013,11,12,02,58,7.30
2013,11,12,02,59,7.30
2013,11,12,03,00,7.30
2013,11,12,03,01,7.30
2013,11,12,03,02,7.30
2013,11,12,03,03,7.30
2013,11,12,03,04,7.30
2013,11,12,03,05,7.30
2013,11,12,03,06,7.30
2013,11,12,03,07,7.30
2013,11,12,03,08,7.30
2013,11,12,03,09,7.30
2013,11,12,03,10,7.30
2013,11,12,03,11,7.20
2013,11,12,03,12,7.30
2013,11,12,03,13,7.20
2013,11,12,03,14,7.30
2013,11,12,03,15,7.30
2013,11,12,03,16,7.30
2013,11,12,03,17,7.30
2013,11,12,03,18,7.30
2013,11,12,03,19,7.30
2013,11,12,03,20,7.30
2013,11,12,03,21,7.30
2013,11,12,03,22,7.20
2013,11,12,03,23,7.20
2013,11,12,03,24,7.20
2013,11,12,03,25,7.20
2013,11,12,03,26,7.20
2013,11,12,03,27,7.20
2013,11,12,03,28,7.20
2013,11,12,03,29,7.20
2013,11,12,03,30,7.20
2013,11,12,03,31,7.20
2013,11,12,03,32,7.20
2013,11,12,03,33,7.20
2013,11,12,03,34,7.20
2013,11,12,03,35,7.20
2013,11,12,03,36,7.20
2013,11,12,03,37,7.20
2013,11,12,03,38,7.20
2013,11,12,03,39,7.20
2013,11,12,03,40,7.20
2013,11,12,03,41,7.20
2013,11,12,03,42,7.20
2013,11,12,03,43,7.20
2013,11,12,03,44,7.20
2013,11,12,03,45,7.20
2013,11,12,03,46,7.20
2013,11,12,03,47,7.20
2013,11,12,03,48,7.20
2013,11,12,03,49,7.20
2013,11,12,03,50,7.20
2013,11,12,03,51,7.20
2013,11,12,03,52,7.20
2013,11,12,03,53,7.20
2013,11,12,03,54,7.20
2013,11,12,03,55,7.20
2013,11,12,03,56,7.20
2013,11,12,03,57,7.20
2013,11,12,03,58,7.20
2013,11,12,03,59,7.20
2013,11,12,04,00,7.20
2013,11,12,04,01,7.20
2013,11,12,04,02,7.20
2013,11,12,04,03,7.20
2013,11,12,04,04,7.20
2013,11,12,04,05,7.20
2013,11,12,04,06,7.20
2013,11,12,04,07,7.20
2013,11,12,04,08,7.20
2013,11,12,04,09,7.20
2013,11,12,04,10,7.20
2013,11,12,04,11,7.20
2013,11,12,04,12,7.20
2013,11,12,04,13,7.20
2013,11,12,04,14,7.20
2013,11,12,04,15,7.20
2013,11,12,04,16,7.20
2013,11,12,04,17,7.20
2013,11,12,04,18,7.20
2013,11,12,04,19,7.20
2013,11,12,04,20,7.20
2013,11,12,04,21,7.20
2013,11,12,04,22,7.20
2013,11,12,04,23,7.20
2013,11,12,04,24,7.20
2013,11,12,04,25,7.20
2013,11,12,04,26,7.20
2013,11,12,04,27,7.30
2013,11,12,04,28,7.30
2013,11,12,04,29,7.20
2013,11,12,04,30,7.30
2013,11,12,04,31,7.30
2013,11,12,04,32,7.30
2013,11,12,04,33,7.30
2013,11,12,04,34,7.30
2013,11,12,04,35,7.30
2013,11,12,04,36,7.30
2013,11,12,04,37,7.30
2013,11,12,04,38,7.30
2013,11,12,04,39,7.30
2013,11,12,04,40,7.30
2013,11,12,04,41,7.30
2013,11,12,04,42,7.30
2013,11,12,04,43,7.30
2013,11,12,04,44,7.30
2013,11,12,04,45,7.30
2013,11,12,04,46,7.30
2013,11,12,04,47,7.30
2013,11,12,04,48,7.30
2013,11,12,04,49,7.40
2013,11,12,04,50,7.40
2013,11,12,04,51,7.40
2013,11,12,04,52,7.40
2013,11,12,04,53,7.40
2013,11,12,04,54,7.40
2013,11,12,04,55,7.40
2013,11,12,04,56,7.40
2013,11,12,04,57,7.40
2013,11,12,04,58,7.40
2013,11,12,04,59,7.40
2013,11,12,05,00,7.40
2013,11,12,05,01,7.40
2013,11,12,05,02,7.40
2013,11,12,05,03,7.40
2013,11,12,05,04,7.40
2013,11,12,05,05,7.40
2013,11,12,05,06,7.40
2013,11,12,05,07,7.40
2013,11,12,05,08,7.40
2013,11,12,05,09,7.40
2013,11,12,05,10,7.40
2013,11,12,05,11,7.40
2013,11,12,05,12,7.40
2013,11,12,05,13,7.40
2013,11,12,05,14,7.40
2013,11,12,05,15,7.40
2013,11,12,05,16,7.40
2013,11,12,05,17,7.40
2013,11,12,05,18,7.40
2013,11,12,05,19,7.40
2013,11,12,05,20,7.40
2013,11,12,05,21,7.40
2013,11,12,05,22,7.40
2013,11,12,05,23,7.40
2013,11,12,05,24,7.40
2013,11,12,05,25,7.40
2013,11,12,05,26,7.40
2013,11,12,05,27,7.40
2013,11,12,05,28,7.40
2013,11,12,05,29,7.40
2013,11,12,05,30,7.40
2013,11,12,05,31,7.40
2013,11,12,05,32,7.40
2013,11,12,05,33,7.40
2013,11,12,05,34,7.40
2013,11,12,05,35,7.40
2013,11,12,05,36,7.40
2013,11,12,05,37,7.40
2013,11,12,05,38,7.40
2013,11,12,05,39,7.40
2013,11,12,05,40,7.40
2013,11,12,05,41,7.40
2013,11,12,05,42,7.40
2013,11,12,05,43,7.40
2013,11,12,05,44,7.40
2013,11,12,05,45,7.40
2013,11,12,05,46,7.40
2013,11,12,05,47,7.40
2013,11,12,05,48,7.40
2013,11,12,05,49,7.40
2013,11,12,05,50,7.40
2013,11,12,05,51,7.40
2013,11,12,05,52,7.40
2013,11,12,05,53,7.40
2013,11,12,05,54,7.40
2013,11,12,05,55,7.40
2013,11,12,05,56,7.40
2013,11,12,05,57,7.40
2013,11,12,05,58,7.40
2013,11,12,05,59,7.40
2013,11,12,06,00,7.40
2013,11,12,06,01,7.40
2013,11,12,06,02,7.40
2013,11,12,06,03,7.40
2013,11,12,06,04,7.40
2013,11,12,06,05,7.40
2013,11,12,06,06,7.40
2013,11,12,06,07,7.40
2013,11,12,06,08,7.40
2013,11,12,06,09,7.40
2013,11,12,06,10,7.40
2013,11,12,06,11,7.40
2013,11,12,06,12,7.40
2013,11,12,06,13,7.40
2013,11,12,06,14,7.40
2013,11,12,06,15,7.40
2013,11,12,06,16,7.40
2013,11,12,06,17,7.40
2013,11,12,06,18,7.40
2013,11,12,06,19,7.40
2013,11,12,06,20,7.40
2013,11,12,06,21,7.40
2013,11,12,06,22,7.40
2013,11,12,06,23,7.40
2013,11,12,06,24,7.40
2013,11,12,06,25,7.40
2013,11,12,06,26,7.40
2013,11,12,06,27,7.40
2013,11,12,06,28,7.50
2013,11,12,06,29,7.40
2013,11,12,06,30,7.50
2013,11,12,06,31,7.50
2013,11,12,06,32,7.50
2013,11,12,06,33,7.50
2013,11,12,06,34,7.50
2013,11,12,06,35,7.50
2013,11,12,06,36,7.50
2013,11,12,06,37,7.50
2013,11,12,06,38,7.50
2013,11,12,06,39,7.50
2013,11,12,06,40,7.50
2013,11,12,06,41,7.50
2013,11,12,06,42,7.50
2013,11,12,06,43,7.50
2013,11,12,06,44,7.50
2013,11,12,06,45,7.60
2013,11,12,06,46,7.60
2013,11,12,06,47,7.60
2013,11,12,06,48,7.60
2013,11,12,06,49,7.60
2013,11,12,06,50,7.60
2013,11,12,06,51,7.60
2013,11,12,06,52,7.60
2013,11,12,06,53,7.60
2013,11,12,06,54,7.70
2013,11,12,06,55,7.70
2013,11,12,06,56,7.70
2013,11,12,06,57,7.70
2013,11,12,06,58,7.70
2013,11,12,06,59,7.70
2013,11,12,07,00,7.70
2013,11,12,07,01,7.70
2013,11,12,07,02,7.70
2013,11,12,07,03,7.70
2013,11,12,07,04,7.70
2013,11,12,07,05,7.70
2013,11,12,07,06,7.70
2013,11,12,07,07,7.70
2013,11,12,07,08,7.70
2013,11,12,07,09,7.70
2013,11,12,07,10,7.70
2013,11,12,07,11,7.70
2013,11,12,07,12,7.70
2013,11,12,07,13,7.70
2013,11,12,07,14,7.70
2013,11,12,07,15,7.70
2013,11,12,07,16,7.70
2013,11,12,07,17,7.70
2013,11,12,07,18,7.70
2013,11,12,07,19,7.70
2013,11,12,07,20,7.70
2013,11,12,07,21,7.70
2013,11,12,07,22,7.70
2013,11,12,07,23,7.70
2013,11,12,07,24,7.70
2013,11,12,07,25,7.80
2013,11,12,07,26,7.80
2013,11,12,07,27,7.80
2013,11,12,07,28,7.80
2013,11,12,07,29,7.80
2013,11,12,07,30,7.80
2013,11,12,07,31,7.80
2013,11,12,07,32,7.80
2013,11,12,07,33,7.80
2013,11,12,07,34,7.80
2013,11,12,07,35,7.80
2013,11,12,07,36,7.80
2013,11,12,07,37,7.80
2013,11,12,07,38,7.80
2013,11,12,07,39,7.80
2013,11,12,07,40,7.80
2013,11,12,07,41,7.90
2013,11,12,07,42,7.90
2013,11,12,07,43,7.90
2013,11,12,07,44,7.90
2013,11,12,07,45,7.90
2013,11,12,07,46,8.00
2013,11,12,07,47,8.00
2013,11,12,07,48,8.00
2013,11,12,07,49,8.00
2013,11,12,07,50,8.10
2013,11,12,07,51,8.10
2013,11,12,07,52,8.10
2013,11,12,07,53,8.10
2013,11,12,07,54,8.10
2013,11,12,07,55,8.10
2013,11,12,07,56,8.10
2013,11,12,07,57,8.10
2013,11,12,07,58,8.10
2013,11,12,07,59,8.10
2013,11,12,08,00,8.10
2013,11,12,08,01,8.10
2013,11,12,08,02,8.10
2013,11,12,08,03,8.10
2013,11,12,08,04,8.10
2013,11,12,08,05,8.10
2013,11,12,08,06,8.10
2013,11,12,08,07,8.20
2013,11,12,08,08,8.20
2013,11,12,08,09,8.20
2013,11,12,08,10,8.20
2013,11,12,08,11,8.20
2013,11,12,08,12,8.20
2013,11,12,08,13,8.20
2013,11,12,08,14,8.20
2013,11,12,08,15,8.30
2013,11,12,08,16,8.30
2013,11,12,08,17,8.30
2013,11,12,08,18,8.30
2013,11,12,08,19,8.30
2013,11,12,08,20,8.30
2013,11,12,08,21,8.30
2013,11,12,08,22,8.30
2013,11,12,08,23,8.30
2013,11,12,08,24,8.30
2013,11,12,08,25,8.30
2013,11,12,08,26,8.30
2013,11,12,08,27,8.40
2013,11,12,08,28,8.40
2013,11,12,08,29,8.40
2013,11,12,08,30,8.40
2013,11,12,08,31,8.40
2013,11,12,08,32,8.40
2013,11,12,08,33,8.40
2013,11,12,08,34,8.40
2013,11,12,08,35,8.40
2013,11,12,08,36,8.40
2013,11,12,08,37,8.40
2013,11,12,08,38,8.40
2013,11,12,08,39,8.40
2013,11,12,08,40,8.40
2013,11,12,08,41,8.40
2013,11,12,08,42,8.40
2013,11,12,08,43,8.40
2013,11,12,08,44,8.40
2013,11,12,08,45,8.50
2013,11,12,08,46,8.50
2013,11,12,08,47,8.60
2013,11,12,08,48,8.60
2013,11,12,08,49,8.60
2013,11,12,08,50,8.60
2013,11,12,08,51,8.70
2013,11,12,08,52,8.70
2013,11,12,08,53,8.70
2013,11,12,08,54,8.80
2013,11,12,08,55,8.80
2013,11,12,08,56,8.90
2013,11,12,08,57,8.90
2013,11,12,08,58,8.90
2013,11,12,08,59,9.00
2013,11,12,09,00,9.00
2013,11,12,09,01,9.10
2013,11,12,09,02,9.10
2013,11,12,09,03,9.20
2013,11,12,09,04,9.20
2013,11,12,09,05,9.20
2013,11,12,09,06,9.20
2013,11,12,09,07,9.20
2013,11,12,09,08,9.20
2013,11,12,09,09,9.20
2013,11,12,09,10,9.30
2013,11,12,09,11,9.30
2013,11,12,09,12,9.40
2013,11,12,09,13,9.40
2013,11,12,09,14,9.50
2013,11,12,09,15,9.60
2013,11,12,09,16,9.60
2013,11,12,09,17,9.60
2013,11,12,09,18,9.70
2013,11,12,09,19,9.70
2013,11,12,09,20,9.80
2013,11,12,09,21,9.80
2013,11,12,09,22,9.80
2013,11,12,09,23,9.90
2013,11,12,09,24,9.90
2013,11,12,09,25,9.90
2013,11,12,09,26,9.90
2013,11,12,09,27,10.00
2013,11,12,09,28,10.00
2013,11,12,09,29,10.10
2013,11,12,09,30,10.20
2013,11,12,09,31,10.20
2013,11,12,09,32,10.20
2013,11,12,09,33,10.30
2013,11,12,09,34,10.30
2013,11,12,09,35,10.30
2013,11,12,09,36,10.40
2013,11,12,09,37,10.40
2013,11,12,09,38,10.40
2013,11,12,09,39,10.50
2013,11,12,09,40,10.50
2013,11,12,09,41,10.60
2013,11,12,09,42,10.60
2013,11,12,09,43,10.60
2013,11,12,09,44,10.60
2013,11,12,09,45,10.60
2013,11,12,09,46,10.60
2013,11,12,09,47,10.70
2013,11,12,09,48,10.70
2013,11,12,09,49,10.70
2013,11,12,09,50,10.70
2013,11,12,09,51,10.70
2013,11,12,09,52,10.70
2013,11,12,09,53,10.70
2013,11,12,09,54,10.80
2013,11,12,09,55,10.80
2013,11,12,09,56,10.80
2013,11,12,09,57,10.90
2013,11,12,09,58,10.90
2013,11,12,09,59,11.00
2013,11,12,10,00,11.00
2013,11,12,10,01,11.10
2013,11,12,10,02,11.10
2013,11,12,10,03,11.20
2013,11,12,10,04,11.20
2013,11,12,10,05,11.20
2013,11,12,10,06,11.30
2013,11,12,10,07,11.30
2013,11,12,10,08,11.30
2013,11,12,10,09,11.30
2013,11,12,10,10,11.40
2013,11,12,10,11,11.40
2013,11,12,10,12,11.50
2013,11,12,10,13,11.50
2013,11,12,10,14,11.60
2013,11,12,10,15,11.60
2013,11,12,10,16,11.60
2013,11,12,10,17,11.60
2013,11,12,10,18,11.70
2013,11,12,10,19,11.70
2013,11,12,10,20,11.70
2013,11,12,10,21,11.80
2013,11,12,10,22,11.80
2013,11,12,10,23,11.80
2013,11,12,10,24,11.80
2013,11,12,10,25,11.90
2013,11,12,10,26,11.90
2013,11,12,10,27,12.00
2013,11,12,10,28,12.00
2013,11,12,10,29,12.10
2013,11,12,10,30,12.10
2013,11,12,10,31,12.10
2013,11,12,10,32,12.20
2013,11,12,10,33,12.20
2013,11,12,10,34,12.20
2013,11,12,10,35,12.30
2013,11,12,10,36,12.30
2013,11,12,10,37,12.30
2013,11,12,10,38,12.30
2013,11,12,10,39,12.30
2013,11,12,10,40,12.30
2013,11,12,10,41,12.30
2013,11,12,10,42,12.30
2013,11,12,10,43,12.40
2013,11,12,10,44,12.40
2013,11,12,10,45,12.40
2013,11,12,10,46,12.40
2013,11,12,10,47,12.40
2013,11,12,10,48,12.40
2013,11,12,10,49,12.50
2013,11,12,10,50,12.50
2013,11,12,10,51,12.60
2013,11,12,10,52,12.60
2013,11,12,10,53,12.60
2013,11,12,10,54,12.60
2013,11,12,10,55,12.50
2013,11,12,10,56,12.50
2013,11,12,10,57,12.50
2013,11,12,10,58,12.40
2013,11,12,10,59,12.40
2013,11,12,11,00,12.40
2013,11,12,11,01,12.40
2013,11,12,11,02,12.40
2013,11,12,11,03,12.50
2013,11,12,11,04,12.50
2013,11,12,11,05,12.50
2013,11,12,11,06,12.60
2013,11,12,11,07,12.60
2013,11,12,11,08,12.60
2013,11,12,11,09,12.60
2013,11,12,11,10,12.60
2013,11,12,11,11,12.60
2013,11,12,11,12,12.70
2013,11,12,11,13,12.60
2013,11,12,11,14,12.70
2013,11,12,11,15,12.70
2013,11,12,11,16,12.70
2013,11,12,11,17,12.70
2013,11,12,11,18,12.80
2013,11,12,11,19,12.80
2013,11,12,11,20,12.80
2013,11,12,11,21,12.80
2013,11,12,11,22,12.80
2013,11,12,11,23,12.80
2013,11,12,11,24,12.80
2013,11,12,11,25,12.80
2013,11,12,11,26,12.80
2013,11,12,11,27,12.80
2013,11,12,11,28,12.80
2013,11,12,11,29,12.80
2013,11,12,11,30,12.80
2013,11,12,11,31,12.80
2013,11,12,11,32,12.90
2013,11,12,11,33,12.90
2013,11,12,11,34,12.90
2013,11,12,11,35,13.00
2013,11,12,11,36,13.00
2013,11,12,11,37,13.10
2013,11,12,11,38,13.20
2013,11,12,11,39,13.20
2013,11,12,11,40,13.30
2013,11,12,11,41,13.30
2013,11,12,11,42,13.30
2013,11,12,11,43,13.40
2013,11,12,11,44,13.40
2013,11,12,11,45,13.40
2013,11,12,11,46,13.40
2013,11,12,11,47,13.40
2013,11,12,11,48,13.40
2013,11,12,11,49,13.40
2013,11,12,11,50,13.40
2013,11,12,11,51,13.40
2013,11,12,11,52,13.30
2013,11,12,11,53,13.30
2013,11,12,11,54,13.20
2013,11,12,11,55,13.20
2013,11,12,11,56,13.20
2013,11,12,11,57,13.20
2013,11,12,11,58,13.10
2013,11,12,11,59,13.10
2013,11,12,12,00,13.10
2013,11,12,12,01,13.10
2013,11,12,12,02,13.10
2013,11,12,12,03,13.10
2013,11,12,12,04,13.10
2013,11,12,12,05,13.10
2013,11,12,12,06,13.10
2013,11,12,12,07,13.00
2013,11,12,12,08,13.00
2013,11,12,12,09,12.90
2013,11,12,12,10,12.90
2013,11,12,12,11,12.90
2013,11,12,12,12,12.80
2013,11,12,12,13,12.80
2013,11,12,12,14,12.80
2013,11,12,12,15,12.80
2013,11,12,12,16,12.80
2013,11,12,12,17,12.80
2013,11,12,12,18,12.80
2013,11,12,12,19,12.80
2013,11,12,12,20,12.80
2013,11,12,12,21,12.80
2013,11,12,12,22,12.80
2013,11,12,12,23,12.80
2013,11,12,12,24,12.80
2013,11,12,12,25,12.80
2013,11,12,12,26,12.90
2013,11,12,12,27,12.90
2013,11,12,12,28,12.90
2013,11,12,12,29,12.90
2013,11,12,12,30,12.90
2013,11,12,12,31,13.00
2013,11,12,12,32,13.00
2013,11,12,12,33,13.00
2013,11,12,12,34,13.10
2013,11,12,12,35,13.10
2013,11,12,12,36,13.10
2013,11,12,12,37,13.10
2013,11,12,12,38,13.10
2013,11,12,12,39,13.10
2013,11,12,12,40,13.20
2013,11,12,12,41,13.20
2013,11,12,12,42,13.20
2013,11,12,12,43,13.20
2013,11,12,12,44,13.20
2013,11,12,12,45,13.20
2013,11,12,12,46,13.20
2013,11,12,12,47,13.20
2013,11,12,12,48,13.20
2013,11,12,12,49,13.20
2013,11,12,12,50,13.20
2013,11,12,12,51,13.30
2013,11,12,12,52,13.30
2013,11,12,12,53,13.30
2013,11,12,12,54,13.30
2013,11,12,12,55,13.30
2013,11,12,12,56,13.30
2013,11,12,12,57,13.30
2013,11,12,12,58,13.30
2013,11,12,12,59,13.30
2013,11,12,13,00,13.30
2013,11,12,13,01,13.30
2013,11,12,13,02,13.30
2013,11,12,13,03,13.30
2013,11,12,13,04,13.30
2013,11,12,13,05,13.30
2013,11,12,13,06,13.30
2013,11,12,13,07,13.30
2013,11,12,13,08,13.30
2013,11,12,13,09,13.30
2013,11,12,13,10,13.30
2013,11,12,13,11,13.30
2013,11,12,13,12,13.30
2013,11,12,13,13,13.30
2013,11,12,13,14,13.30
2013,11,12,13,15,13.30
2013,11,12,13,16,13.30
2013,11,12,13,17,13.30
2013,11,12,13,18,13.30
2013,11,12,13,19,13.30
2013,11,12,13,20,13.30
2013,11,12,13,21,13.30
2013,11,12,13,22,13.30
2013,11,12,13,23,13.30
2013,11,12,13,24,13.30
2013,11,12,13,25,13.30
2013,11,12,13,26,13.30
2013,11,12,13,27,13.30
2013,11,12,13,28,13.30
2013,11,12,13,29,13.30
2013,11,12,13,30,13.30
2013,11,12,13,31,13.20
2013,11,12,13,32,13.20
2013,11,12,13,33,13.10
2013,11,12,13,34,13.10
2013,11,12,13,35,13.00
2013,11,12,13,36,12.90
2013,11,12,13,37,12.90
2013,11,12,13,38,12.90
2013,11,12,13,39,13.00
2013,11,12,13,40,13.10
2013,11,12,13,41,13.10
2013,11,12,13,42,13.10
2013,11,12,13,43,13.20
2013,11,12,13,44,13.20
2013,11,12,13,45,13.20
2013,11,12,13,46,13.20
2013,11,12,13,47,13.20
2013,11,12,13,48,13.20
2013,11,12,13,49,13.20
2013,11,12,13,50,13.20
2013,11,12,13,51,13.20
2013,11,12,13,52,13.20
2013,11,12,13,53,13.30
2013,11,12,13,54,13.30
2013,11,12,13,55,13.30
2013,11,12,13,56,13.30
2013,11,12,13,57,13.30
2013,11,12,13,58,13.30
2013,11,12,13,59,13.30
2013,11,12,14,00,13.40
2013,11,12,14,01,13.40
2013,11,12,14,02,13.40
2013,11,12,14,03,13.40
2013,11,12,14,04,13.50
2013,11,12,14,05,13.50
2013,11,12,14,06,13.60
2013,11,12,14,07,13.60
2013,11,12,14,08,13.70
2013,11,12,14,09,13.70
2013,11,12,14,10,13.80
2013,11,12,14,11,13.80
2013,11,12,14,12,13.80
2013,11,12,14,13,13.90
2013,11,12,14,14,13.90
2013,11,12,14,15,13.90
2013,11,12,14,16,14.00
2013,11,12,14,17,14.00
2013,11,12,14,18,14.10
2013,11,12,14,19,14.20
2013,11,12,14,20,14.20
2013,11,12,14,21,14.30
2013,11,12,14,22,14.30
2013,11,12,14,23,14.30
2013,11,12,14,24,14.30
2013,11,12,14,25,14.30
2013,11,12,14,26,14.30
2013,11,12,14,27,14.30
2013,11,12,14,28,14.30
2013,11,12,14,29,14.20
2013,11,12,14,30,14.20
2013,11,12,14,31,14.10
2013,11,12,14,32,14.10
2013,11,12,14,33,14.10
2013,11,12,14,34,14.00
2013,11,12,14,35,13.90
2013,11,12,14,36,13.90
2013,11,12,14,37,13.80
2013,11,12,14,38,13.70
2013,11,12,14,39,13.60
2013,11,12,14,40,13.50
2013,11,12,14,41,13.50
2013,11,12,14,42,13.40
2013,11,12,14,43,13.40
2013,11,12,14,44,13.30
2013,11,12,14,45,13.30
2013,11,12,14,46,13.30
2013,11,12,14,47,13.20
2013,11,12,14,48,13.20
2013,11,12,14,49,13.20
2013,11,12,14,50,13.20
2013,11,12,14,51,13.10
2013,11,12,14,52,13.10
2013,11,12,14,53,13.00
2013,11,12,14,54,13.00
2013,11,12,14,55,12.90
2013,11,12,14,56,12.80
2013,11,12,14,57,12.80
2013,11,12,14,58,12.70
2013,11,12,14,59,12.70
2013,11,12,15,00,12.60
2013,11,12,15,01,12.60
2013,11,12,15,02,12.50
2013,11,12,15,03,12.50
2013,11,12,15,04,12.50
2013,11,12,15,05,12.40
2013,11,12,15,06,12.40
2013,11,12,15,07,12.40
2013,11,12,15,08,12.40
2013,11,12,15,09,12.30
2013,11,12,15,10,12.30
2013,11,12,15,11,12.30
2013,11,12,15,12,12.30
2013,11,12,15,13,12.30
2013,11,12,15,14,12.30
2013,11,12,15,15,12.20
2013,11,12,15,16,12.20
2013,11,12,15,17,12.20
2013,11,12,15,18,12.20
2013,11,12,15,19,12.20
2013,11,12,15,20,12.20
2013,11,12,15,21,12.20
2013,11,12,15,22,12.20
2013,11,12,15,23,12.20
2013,11,12,15,24,12.20
2013,11,12,15,25,12.20
2013,11,12,15,26,12.20
2013,11,12,15,27,12.20
2013,11,12,15,28,12.20
2013,11,12,15,29,12.20
2013,11,12,15,30,12.20
2013,11,12,15,31,12.20
2013,11,12,15,32,12.20
2013,11,12,15,33,12.20
2013,11,12,15,34,12.20
2013,11,12,15,35,12.20
2013,11,12,15,36,12.20
2013,11,12,15,37,12.20
2013,11,12,15,38,12.20
2013,11,12,15,39,12.20
2013,11,12,15,40,12.20
2013,11,12,15,41,12.20
2013,11,12,15,42,12.20
2013,11,12,15,43,12.20
2013,11,12,15,44,12.20
2013,11,12,15,45,12.20
2013,11,12,15,46,12.20
2013,11,12,15,47,12.30
2013,11,12,15,48,12.30
2013,11,12,15,49,12.30
2013,11,12,15,50,12.30
2013,11,12,15,51,12.20
2013,11,12,15,52,12.20
2013,11,12,15,53,12.20
2013,11,12,15,54,12.20
2013,11,12,15,55,12.20
2013,11,12,15,56,12.10
2013,11,12,15,57,12.10
2013,11,12,15,58,12.10
2013,11,12,15,59,12.10
2013,11,12,16,00,12.10
2013,11,12,16,01,12.00
2013,11,12,16,02,12.00
2013,11,12,16,03,12.00
2013,11,12,16,04,11.90
2013,11,12,16,05,11.90
2013,11,12,16,06,11.90
2013,11,12,16,07,11.90
2013,11,12,16,08,11.90
2013,11,12,16,09,11.90
2013,11,12,16,10,11.80
2013,11,12,16,11,11.80
2013,11,12,16,12,11.80
2013,11,12,16,13,11.80
2013,11,12,16,14,11.80
2013,11,12,16,15,11.80
2013,11,12,16,16,11.80
2013,11,12,16,17,11.70
2013,11,12,16,18,11.70
2013,11,12,16,19,11.70
2013,11,12,16,20,11.70
2013,11,12,16,21,11.70
2013,11,12,16,22,11.70
2013,11,12,16,23,11.70
2013,11,12,16,24,11.60
2013,11,12,16,25,11.60
2013,11,12,16,26,11.60
2013,11,12,16,27,11.60
2013,11,12,16,28,11.60
2013,11,12,16,29,11.60
2013,11,12,16,30,11.60
2013,11,12,16,31,11.60
2013,11,12,16,32,11.60
2013,11,12,16,33,11.50
2013,11,12,16,34,11.50
2013,11,12,16,35,11.50
2013,11,12,16,36,11.50
2013,11,12,16,37,11.50
2013,11,12,16,38,11.50
2013,11,12,16,39,11.40
2013,11,12,16,40,11.40
2013,11,12,16,41,11.40
2013,11,12,16,42,11.40
2013,11,12,16,43,11.40
2013,11,12,16,44,11.30
2013,11,12,16,45,11.30
2013,11,12,16,46,11.30
2013,11,12,16,47,11.30
2013,11,12,16,48,11.30
2013,11,12,16,49,11.30
2013,11,12,16,50,11.20
2013,11,12,16,51,11.20
2013,11,12,16,52,11.20
2013,11,12,16,53,11.20
2013,11,12,16,54,11.20
2013,11,12,16,55,11.20
2013,11,12,16,56,11.20
2013,11,12,16,57,11.20
2013,11,12,16,58,11.20
2013,11,12,16,59,11.20
2013,11,12,17,00,11.20
2013,11,12,17,01,11.20
2013,11,12,17,02,11.20
2013,11,12,17,03,11.20
2013,11,12,17,04,11.20
2013,11,12,17,05,11.20
2013,11,12,17,06,11.10
2013,11,12,17,07,11.10
2013,11,12,17,08,11.10
2013,11,12,17,09,11.10
2013,11,12,17,10,11.00
2013,11,12,17,11,11.00
2013,11,12,17,12,11.00
2013,11,12,17,13,11.00
2013,11,12,17,14,11.00
2013,11,12,17,15,11.00
2013,11,12,17,16,11.00
2013,11,12,17,17,10.90
2013,11,12,17,18,10.90
2013,11,12,17,19,10.90
2013,11,12,17,20,10.90
2013,11,12,17,21,10.90
2013,11,12,17,22,10.90
2013,11,12,17,23,10.90
2013,11,12,17,24,10.90
2013,11,12,17,25,10.90
2013,11,12,17,26,10.90
2013,11,12,17,27,10.90
2013,11,12,17,28,10.90
2013,11,12,17,29,10.90
2013,11,12,17,30,10.90
2013,11,12,17,31,10.80
2013,11,12,17,32,10.80
2013,11,12,17,33,10.80
2013,11,12,17,34,10.80
2013,11,12,17,35,10.80
2013,11,12,17,36,10.70
2013,11,12,17,37,10.70
2013,11,12,17,38,10.70
2013,11,12,17,39,10.60
2013,11,12,17,40,10.60
2013,11,12,17,41,10.60
2013,11,12,17,42,10.60
2013,11,12,17,43,10.60
2013,11,12,17,44,10.50